Find Starlink 30088

NORAD ID: 57462 Int'l Des: 2023-107 Owner: SPXS Country: US Constellation: starlink operational
LEOCIRCULAR

リアルタイム位置

3D地球を読み込み中...

Starlink 30088について

説明を読み込み中...

次回通過

Passes for default location (London). Set your location on the main map for personalized predictions.

高度履歴

Loading altitude history...

軌道要素

1 57462U 23107F 26110.27273229 -.00000276 00000-0 -49935-6 0 9994
2 57462 43.0029 101.5230 0001185 271.9349 88.1367 15.27574250151509
Epoch: Apr 20, 2026 • Age: 9 hours

現在のステータス

高度 491.3 km
速度 7.62 km/s
衛星直下点 -32.20°S, 27.65°W
打ち上げ日 Jul 28, 2023
運用期間 2.7 years
タイプ internet

技術仕様

分類 Payload
質量 730.00 kg
乾燥質量 700.00 kg
総質量 730.00 kg
長さ 0.30 m
直径 4.10 m
スパン 29.00 m
形状 Box + pan
製造者 SPXS
バスタイプ Starlink V2M
フェーズステータス In Orbit
所有者/国 SPXS/US

Most Searched